Index of /20260430/WXO-DD/model_gdps/15km/12/012
Name Last modified Size Description
Parent Directory -
20260430T12Z_MSC_GDPS_AbsoluteVorticity_IsbL-0200_LatLon0.15_PT012H.grib2 2026-04-30 15:51 1.5M
20260430T12Z_MSC_GDPS_AbsoluteVorticity_IsbL-0250_LatLon0.15_PT012H.grib2 2026-04-30 15:51 1.3M
20260430T12Z_MSC_GDPS_AbsoluteVorticity_IsbL-0500_LatLon0.15_PT012H.grib2 2026-04-30 15:51 1.5M
20260430T12Z_MSC_GDPS_AbsoluteVorticity_IsbL-0700_LatLon0.15_PT012H.grib2 2026-04-30 15:51 1.3M
20260430T12Z_MSC_GDPS_AbsoluteVorticity_IsbL-0850_LatLon0.15_PT012H.grib2 2026-04-30 15:51 1.6M
20260430T12Z_MSC_GDPS_AirTemp-Max_AGL-2m_LatLon0.15_PT012H.grib2 2026-04-30 15:51 743K
20260430T12Z_MSC_GDPS_AirTemp-Min_AGL-2m_LatLon0.15_PT012H.grib2 2026-04-30 15:51 797K
20260430T12Z_MSC_GDPS_AirTemp_AGL-120m_LatLon0.15_PT012H.grib2 2026-04-30 15:51 908K
20260430T12Z_MSC_GDPS_AirTemp_AGL-2m_LatLon0.15_PT012H.grib2 2026-04-30 15:51 1.0M
20260430T12Z_MSC_GDPS_AirTemp_AGL-40m_LatLon0.15_PT012H.grib2 2026-04-30 15:51 813K
20260430T12Z_MSC_GDPS_AirTemp_AGL-80m_LatLon0.15_PT012H.grib2 2026-04-30 15:51 802K
20260430T12Z_MSC_GDPS_AirTemp_IsbL-0001_LatLon0.15_PT012H.grib2 2026-04-30 15:51 658K
20260430T12Z_MSC_GDPS_AirTemp_IsbL-0005_LatLon0.15_PT012H.grib2 2026-04-30 15:51 682K
20260430T12Z_MSC_GDPS_AirTemp_IsbL-0010_LatLon0.15_PT012H.grib2 2026-04-30 15:51 760K
20260430T12Z_MSC_GDPS_AirTemp_IsbL-0020_LatLon0.15_PT012H.grib2 2026-04-30 15:51 789K
20260430T12Z_MSC_GDPS_AirTemp_IsbL-0030_LatLon0.15_PT012H.grib2 2026-04-30 15:51 752K
20260430T12Z_MSC_GDPS_AirTemp_IsbL-0050_LatLon0.15_PT012H.grib2 2026-04-30 15:51 808K
20260430T12Z_MSC_GDPS_AirTemp_IsbL-0100_LatLon0.15_PT012H.grib2 2026-04-30 15:51 1.0M
20260430T12Z_MSC_GDPS_AirTemp_IsbL-0150_LatLon0.15_PT012H.grib2 2026-04-30 15:51 1.0M
20260430T12Z_MSC_GDPS_AirTemp_IsbL-0175_LatLon0.15_PT012H.grib2 2026-04-30 15:51 963K
20260430T12Z_MSC_GDPS_AirTemp_IsbL-0200_LatLon0.15_PT012H.grib2 2026-04-30 15:51 1.0M
20260430T12Z_MSC_GDPS_AirTemp_IsbL-0225_LatLon0.15_PT012H.grib2 2026-04-30 15:51 1.0M
20260430T12Z_MSC_GDPS_AirTemp_IsbL-0250_LatLon0.15_PT012H.grib2 2026-04-30 15:51 1.0M
20260430T12Z_MSC_GDPS_AirTemp_IsbL-0275_LatLon0.15_PT012H.grib2 2026-04-30 15:51 1.0M
20260430T12Z_MSC_GDPS_AirTemp_IsbL-0300_LatLon0.15_PT012H.grib2 2026-04-30 15:51 952K
20260430T12Z_MSC_GDPS_AirTemp_IsbL-0350_LatLon0.15_PT012H.grib2 2026-04-30 15:51 935K
20260430T12Z_MSC_GDPS_AirTemp_IsbL-0400_LatLon0.15_PT012H.grib2 2026-04-30 15:51 944K
20260430T12Z_MSC_GDPS_AirTemp_IsbL-0450_LatLon0.15_PT012H.grib2 2026-04-30 15:51 964K
20260430T12Z_MSC_GDPS_AirTemp_IsbL-0500_LatLon0.15_PT012H.grib2 2026-04-30 15:51 766K
20260430T12Z_MSC_GDPS_AirTemp_IsbL-0550_LatLon0.15_PT012H.grib2 2026-04-30 15:51 800K
20260430T12Z_MSC_GDPS_AirTemp_IsbL-0600_LatLon0.15_PT012H.grib2 2026-04-30 15:51 894K
20260430T12Z_MSC_GDPS_AirTemp_IsbL-0650_LatLon0.15_PT012H.grib2 2026-04-30 15:51 918K
20260430T12Z_MSC_GDPS_AirTemp_IsbL-0700_LatLon0.15_PT012H.grib2 2026-04-30 15:51 951K
20260430T12Z_MSC_GDPS_AirTemp_IsbL-0750_LatLon0.15_PT012H.grib2 2026-04-30 15:51 1.0M
20260430T12Z_MSC_GDPS_AirTemp_IsbL-0800_LatLon0.15_PT012H.grib2 2026-04-30 15:51 1.0M
20260430T12Z_MSC_GDPS_AirTemp_IsbL-0850_LatLon0.15_PT012H.grib2 2026-04-30 15:51 1.1M
20260430T12Z_MSC_GDPS_AirTemp_IsbL-0875_LatLon0.15_PT012H.grib2 2026-04-30 15:51 1.1M
20260430T12Z_MSC_GDPS_AirTemp_IsbL-0900_LatLon0.15_PT012H.grib2 2026-04-30 15:51 1.1M
20260430T12Z_MSC_GDPS_AirTemp_IsbL-0925_LatLon0.15_PT012H.grib2 2026-04-30 15:51 1.1M
20260430T12Z_MSC_GDPS_AirTemp_IsbL-0950_LatLon0.15_PT012H.grib2 2026-04-30 15:51 1.1M
20260430T12Z_MSC_GDPS_AirTemp_IsbL-0970_LatLon0.15_PT012H.grib2 2026-04-30 15:51 1.1M
20260430T12Z_MSC_GDPS_AirTemp_IsbL-0985_LatLon0.15_PT012H.grib2 2026-04-30 15:51 1.1M
20260430T12Z_MSC_GDPS_AirTemp_IsbL-1000_LatLon0.15_PT012H.grib2 2026-04-30 15:51 1.1M
20260430T12Z_MSC_GDPS_AirTemp_IsbL-1015_LatLon0.15_PT012H.grib2 2026-04-30 15:51 1.1M
20260430T12Z_MSC_GDPS_Albedo_Sfc_LatLon0.15_PT012H.grib2 2026-04-30 15:51 243K
20260430T12Z_MSC_GDPS_CAPE_Sfc_LatLon0.15_PT012H.grib2 2026-04-30 15:51 3.9M
20260430T12Z_MSC_GDPS_CIN_Sfc_LatLon0.15_PT012H.grib2 2026-04-30 15:51 2.9M
20260430T12Z_MSC_GDPS_CloudWater_EAtm_LatLon0.15_PT012H.grib2 2026-04-30 15:51 529K
20260430T12Z_MSC_GDPS_ConvectivePrecip-Accum_Sfc_LatLon0.15_PT012H.grib2 2026-04-30 15:51 2.0M
20260430T12Z_MSC_GDPS_DewPointDepression_AGL-2m_LatLon0.15_PT012H.grib2 2026-04-30 15:51 761K
20260430T12Z_MSC_GDPS_DewPointDepression_IsbL-0010_LatLon0.15_PT012H.grib2 2026-04-30 15:51 56K
20260430T12Z_MSC_GDPS_DewPointDepression_IsbL-0020_LatLon0.15_PT012H.grib2 2026-04-30 15:51 65K
20260430T12Z_MSC_GDPS_DewPointDepression_IsbL-0030_LatLon0.15_PT012H.grib2 2026-04-30 15:51 72K
20260430T12Z_MSC_GDPS_DewPointDepression_IsbL-0050_LatLon0.15_PT012H.grib2 2026-04-30 15:51 370K
20260430T12Z_MSC_GDPS_DewPointDepression_IsbL-0100_LatLon0.15_PT012H.grib2 2026-04-30 15:51 417K
20260430T12Z_MSC_GDPS_DewPointDepression_IsbL-0150_LatLon0.15_PT012H.grib2 2026-04-30 15:51 462K
20260430T12Z_MSC_GDPS_DewPointDepression_IsbL-0175_LatLon0.15_PT012H.grib2 2026-04-30 15:51 561K
20260430T12Z_MSC_GDPS_DewPointDepression_IsbL-0200_LatLon0.15_PT012H.grib2 2026-04-30 15:51 687K
20260430T12Z_MSC_GDPS_DewPointDepression_IsbL-0225_LatLon0.15_PT012H.grib2 2026-04-30 15:51 802K
20260430T12Z_MSC_GDPS_DewPointDepression_IsbL-0250_LatLon0.15_PT012H.grib2 2026-04-30 15:51 883K
20260430T12Z_MSC_GDPS_DewPointDepression_IsbL-0275_LatLon0.15_PT012H.grib2 2026-04-30 15:51 890K
20260430T12Z_MSC_GDPS_DewPointDepression_IsbL-0300_LatLon0.15_PT012H.grib2 2026-04-30 15:51 934K
20260430T12Z_MSC_GDPS_DewPointDepression_IsbL-0350_LatLon0.15_PT012H.grib2 2026-04-30 15:51 956K
20260430T12Z_MSC_GDPS_DewPointDepression_IsbL-0400_LatLon0.15_PT012H.grib2 2026-04-30 15:51 1.0M
20260430T12Z_MSC_GDPS_DewPointDepression_IsbL-0450_LatLon0.15_PT012H.grib2 2026-04-30 15:51 1.0M
20260430T12Z_MSC_GDPS_DewPointDepression_IsbL-0500_LatLon0.15_PT012H.grib2 2026-04-30 15:51 1.0M
20260430T12Z_MSC_GDPS_DewPointDepression_IsbL-0550_LatLon0.15_PT012H.grib2 2026-04-30 15:51 1.0M
20260430T12Z_MSC_GDPS_DewPointDepression_IsbL-0600_LatLon0.15_PT012H.grib2 2026-04-30 15:51 1.0M
20260430T12Z_MSC_GDPS_DewPointDepression_IsbL-0650_LatLon0.15_PT012H.grib2 2026-04-30 15:51 1.1M
20260430T12Z_MSC_GDPS_DewPointDepression_IsbL-0700_LatLon0.15_PT012H.grib2 2026-04-30 15:51 1.1M
20260430T12Z_MSC_GDPS_DewPointDepression_IsbL-0750_LatLon0.15_PT012H.grib2 2026-04-30 15:51 1.1M
20260430T12Z_MSC_GDPS_DewPointDepression_IsbL-0800_LatLon0.15_PT012H.grib2 2026-04-30 15:51 1.1M
20260430T12Z_MSC_GDPS_DewPointDepression_IsbL-0850_LatLon0.15_PT012H.grib2 2026-04-30 15:51 1.1M
20260430T12Z_MSC_GDPS_DewPointDepression_IsbL-0875_LatLon0.15_PT012H.grib2 2026-04-30 15:51 1.1M
20260430T12Z_MSC_GDPS_DewPointDepression_IsbL-0900_LatLon0.15_PT012H.grib2 2026-04-30 15:51 1.1M
20260430T12Z_MSC_GDPS_DewPointDepression_IsbL-0925_LatLon0.15_PT012H.grib2 2026-04-30 15:51 1.0M
20260430T12Z_MSC_GDPS_DewPointDepression_IsbL-0950_LatLon0.15_PT012H.grib2 2026-04-30 15:51 1.0M
20260430T12Z_MSC_GDPS_DewPointDepression_IsbL-0970_LatLon0.15_PT012H.grib2 2026-04-30 15:51 1.0M
20260430T12Z_MSC_GDPS_DewPointDepression_IsbL-0985_LatLon0.15_PT012H.grib2 2026-04-30 15:51 1.0M
20260430T12Z_MSC_GDPS_DewPointDepression_IsbL-1000_LatLon0.15_PT012H.grib2 2026-04-30 15:51 1.0M
20260430T12Z_MSC_GDPS_DewPointDepression_IsbL-1015_LatLon0.15_PT012H.grib2 2026-04-30 15:51 916K
20260430T12Z_MSC_GDPS_DewPoint_AGL-2m_LatLon0.15_PT012H.grib2 2026-04-30 15:51 603K
20260430T12Z_MSC_GDPS_DownwardLongwaveRadiationFlux-Accum_Sfc_LatLon0.15_PT012H.grib2 2026-04-30 15:51 1.0M
20260430T12Z_MSC_GDPS_DownwardShortwaveRadiationFlux-Accum_NTAtm_LatLon0.15_PT012H.grib2 2026-04-30 15:51 342K
20260430T12Z_MSC_GDPS_DownwardShortwaveRadiationFlux-Accum_Sfc_LatLon0.15_PT012H.grib2 2026-04-30 15:51 902K
20260430T12Z_MSC_GDPS_FreezingRain-Accum12h_Sfc_LatLon0.15_PT012H.grib2 2026-04-30 15:51 118K
20260430T12Z_MSC_GDPS_FreezingRain-Accum1h_Sfc_LatLon0.15_PT012H.grib2 2026-04-30 15:51 40K
20260430T12Z_MSC_GDPS_FreezingRain-Accum3h_Sfc_LatLon0.15_PT012H.grib2 2026-04-30 15:51 52K
20260430T12Z_MSC_GDPS_FreezingRain-Accum6h_Sfc_LatLon0.15_PT012H.grib2 2026-04-30 15:51 78K
20260430T12Z_MSC_GDPS_FreezingRain-Accum_Sfc_LatLon0.15_PT012H.grib2 2026-04-30 15:51 137K
20260430T12Z_MSC_GDPS_GeopotentialHeight_IsbL-0001_LatLon0.15_PT012H.grib2 2026-04-30 15:51 435K
20260430T12Z_MSC_GDPS_GeopotentialHeight_IsbL-0005_LatLon0.15_PT012H.grib2 2026-04-30 15:51 489K
20260430T12Z_MSC_GDPS_GeopotentialHeight_IsbL-0010_LatLon0.15_PT012H.grib2 2026-04-30 15:51 475K
20260430T12Z_MSC_GDPS_GeopotentialHeight_IsbL-0020_LatLon0.15_PT012H.grib2 2026-04-30 15:51 414K
20260430T12Z_MSC_GDPS_GeopotentialHeight_IsbL-0030_LatLon0.15_PT012H.grib2 2026-04-30 15:51 571K
20260430T12Z_MSC_GDPS_GeopotentialHeight_IsbL-0050_LatLon0.15_PT012H.grib2 2026-04-30 15:51 574K
20260430T12Z_MSC_GDPS_GeopotentialHeight_IsbL-0100_LatLon0.15_PT012H.grib2 2026-04-30 15:51 612K
20260430T12Z_MSC_GDPS_GeopotentialHeight_IsbL-0150_LatLon0.15_PT012H.grib2 2026-04-30 15:51 628K
20260430T12Z_MSC_GDPS_GeopotentialHeight_IsbL-0175_LatLon0.15_PT012H.grib2 2026-04-30 15:51 631K
20260430T12Z_MSC_GDPS_GeopotentialHeight_IsbL-0200_LatLon0.15_PT012H.grib2 2026-04-30 15:51 636K
20260430T12Z_MSC_GDPS_GeopotentialHeight_IsbL-0225_LatLon0.15_PT012H.grib2 2026-04-30 15:51 639K
20260430T12Z_MSC_GDPS_GeopotentialHeight_IsbL-0250_LatLon0.15_PT012H.grib2 2026-04-30 15:51 643K
20260430T12Z_MSC_GDPS_GeopotentialHeight_IsbL-0275_LatLon0.15_PT012H.grib2 2026-04-30 15:51 641K
20260430T12Z_MSC_GDPS_GeopotentialHeight_IsbL-0300_LatLon0.15_PT012H.grib2 2026-04-30 15:51 639K
20260430T12Z_MSC_GDPS_GeopotentialHeight_IsbL-0350_LatLon0.15_PT012H.grib2 2026-04-30 15:51 628K
20260430T12Z_MSC_GDPS_GeopotentialHeight_IsbL-0400_LatLon0.15_PT012H.grib2 2026-04-30 15:51 622K
20260430T12Z_MSC_GDPS_GeopotentialHeight_IsbL-0450_LatLon0.15_PT012H.grib2 2026-04-30 15:51 613K
20260430T12Z_MSC_GDPS_GeopotentialHeight_IsbL-0500_LatLon0.15_PT012H.grib2 2026-04-30 15:51 534K
20260430T12Z_MSC_GDPS_GeopotentialHeight_IsbL-0550_LatLon0.15_PT012H.grib2 2026-04-30 15:51 526K
20260430T12Z_MSC_GDPS_GeopotentialHeight_IsbL-0600_LatLon0.15_PT012H.grib2 2026-04-30 15:51 690K
20260430T12Z_MSC_GDPS_GeopotentialHeight_IsbL-0650_LatLon0.15_PT012H.grib2 2026-04-30 15:51 687K
20260430T12Z_MSC_GDPS_GeopotentialHeight_IsbL-0700_LatLon0.15_PT012H.grib2 2026-04-30 15:51 687K
20260430T12Z_MSC_GDPS_GeopotentialHeight_IsbL-0750_LatLon0.15_PT012H.grib2 2026-04-30 15:51 685K
20260430T12Z_MSC_GDPS_GeopotentialHeight_IsbL-0800_LatLon0.15_PT012H.grib2 2026-04-30 15:51 698K
20260430T12Z_MSC_GDPS_GeopotentialHeight_IsbL-0850_LatLon0.15_PT012H.grib2 2026-04-30 15:51 704K
20260430T12Z_MSC_GDPS_GeopotentialHeight_IsbL-0875_LatLon0.15_PT012H.grib2 2026-04-30 15:51 711K
20260430T12Z_MSC_GDPS_GeopotentialHeight_IsbL-0900_LatLon0.15_PT012H.grib2 2026-04-30 15:51 719K
20260430T12Z_MSC_GDPS_GeopotentialHeight_IsbL-0925_LatLon0.15_PT012H.grib2 2026-04-30 15:51 727K
20260430T12Z_MSC_GDPS_GeopotentialHeight_IsbL-0950_LatLon0.15_PT012H.grib2 2026-04-30 15:51 733K
20260430T12Z_MSC_GDPS_GeopotentialHeight_IsbL-0970_LatLon0.15_PT012H.grib2 2026-04-30 15:51 746K
20260430T12Z_MSC_GDPS_GeopotentialHeight_IsbL-0985_LatLon0.15_PT012H.grib2 2026-04-30 15:51 761K
20260430T12Z_MSC_GDPS_GeopotentialHeight_IsbL-1000_LatLon0.15_PT012H.grib2 2026-04-30 15:51 782K
20260430T12Z_MSC_GDPS_GeopotentialHeight_IsbL-1015_LatLon0.15_PT012H.grib2 2026-04-30 15:51 805K
20260430T12Z_MSC_GDPS_Humidex_Sfc_LatLon0.15_PT012H.grib2 2026-04-30 15:51 5.3M
20260430T12Z_MSC_GDPS_IcePellets-Accum12h_Sfc_LatLon0.15_PT012H.grib2 2026-04-30 15:51 22K
20260430T12Z_MSC_GDPS_IcePellets-Accum1h_Sfc_LatLon0.15_PT012H.grib2 2026-04-30 15:51 13K
20260430T12Z_MSC_GDPS_IcePellets-Accum3h_Sfc_LatLon0.15_PT012H.grib2 2026-04-30 15:51 14K
20260430T12Z_MSC_GDPS_IcePellets-Accum6h_Sfc_LatLon0.15_PT012H.grib2 2026-04-30 15:51 19K
20260430T12Z_MSC_GDPS_IcePellets-Accum_Sfc_LatLon0.15_PT012H.grib2 2026-04-30 15:51 24K
20260430T12Z_MSC_GDPS_KIndex_Sfc_LatLon0.15_PT012H.grib2 2026-04-30 15:51 6.5M
20260430T12Z_MSC_GDPS_LatentHeatNetFlux_Sfc_LatLon0.15_PT012H.grib2 2026-04-30 15:51 856K
20260430T12Z_MSC_GDPS_LiftedIndex-MU-VT_IsbL-0500_LatLon0.15_PT012H.grib2 2026-04-30 15:51 5.3M
20260430T12Z_MSC_GDPS_NetLongwaveRadiationFlux-Accum_Sfc_LatLon0.15_PT012H.grib2 2026-04-30 15:51 1.3M
20260430T12Z_MSC_GDPS_NetShortwaveRadiationFlux-Accum_Sfc_LatLon0.15_PT012H.grib2 2026-04-30 15:51 857K
20260430T12Z_MSC_GDPS_O3MixingRatio_Sfc_LatLon0.15_PT012H.grib2 2026-04-30 16:43 2.4M
20260430T12Z_MSC_GDPS_O3_EAtm_LatLon0.15_PT012H.grib2 2026-04-30 16:43 2.5M
20260430T12Z_MSC_GDPS_PlanetaryBoundaryLayerHeight_Sfc_LatLon0.15_PT012H.grib2 2026-04-30 15:51 2.4M
20260430T12Z_MSC_GDPS_Precip-Accum12h_Sfc_LatLon0.15_PT012H.grib2 2026-04-30 15:51 4.0M
20260430T12Z_MSC_GDPS_Precip-Accum1h_Sfc_LatLon0.15_PT012H.grib2 2026-04-30 15:51 3.1M
20260430T12Z_MSC_GDPS_Precip-Accum3h_Sfc_LatLon0.15_PT012H.grib2 2026-04-30 15:51 3.4M
20260430T12Z_MSC_GDPS_Precip-Accum6h_Sfc_LatLon0.15_PT012H.grib2 2026-04-30 15:51 3.7M
20260430T12Z_MSC_GDPS_Precip-Accum_Sfc_LatLon0.15_PT012H.grib2 2026-04-30 15:51 4.1M
20260430T12Z_MSC_GDPS_PrecipRate_Sfc_LatLon0.15_PT012H.grib2 2026-04-30 15:51 2.9M
20260430T12Z_MSC_GDPS_PrecipType-Instant_Sfc_LatLon0.15_PT012H.grib2 2026-04-30 15:51 1.5M
20260430T12Z_MSC_GDPS_Pressure_MSL_LatLon0.15_PT012H.grib2 2026-04-30 15:51 817K
20260430T12Z_MSC_GDPS_Pressure_PVU-1.5_LatLon0.15_PT012H.grib2 2026-04-30 15:51 5.8M
20260430T12Z_MSC_GDPS_Pressure_PVU-1_LatLon0.15_PT012H.grib2 2026-04-30 15:51 6.0M
20260430T12Z_MSC_GDPS_Pressure_PVU-2_LatLon0.15_PT012H.grib2 2026-04-30 15:51 5.6M
20260430T12Z_MSC_GDPS_Pressure_Sfc_LatLon0.15_PT012H.grib2 2026-04-30 15:51 1.1M
20260430T12Z_MSC_GDPS_RadiativeTemp_Sfc_LatLon0.15_PT012H.grib2 2026-04-30 15:51 653K
20260430T12Z_MSC_GDPS_Rain-Accum12h_Sfc_LatLon0.15_PT012H.grib2 2026-04-30 15:51 2.7M
20260430T12Z_MSC_GDPS_Rain-Accum1h_Sfc_LatLon0.15_PT012H.grib2 2026-04-30 15:51 1.6M
20260430T12Z_MSC_GDPS_Rain-Accum3h_Sfc_LatLon0.15_PT012H.grib2 2026-04-30 15:51 1.8M
20260430T12Z_MSC_GDPS_Rain-Accum6h_Sfc_LatLon0.15_PT012H.grib2 2026-04-30 15:51 2.4M
20260430T12Z_MSC_GDPS_Rain-Accum_Sfc_LatLon0.15_PT012H.grib2 2026-04-30 15:51 2.9M
20260430T12Z_MSC_GDPS_RelativeHumidity_AGL-2m_LatLon0.15_PT012H.grib2 2026-04-30 15:51 1.0M
20260430T12Z_MSC_GDPS_RelativeHumidity_IsbL-0010_LatLon0.15_PT012H.grib2 2026-04-30 15:51 202K
20260430T12Z_MSC_GDPS_RelativeHumidity_IsbL-0020_LatLon0.15_PT012H.grib2 2026-04-30 15:51 173K
20260430T12Z_MSC_GDPS_RelativeHumidity_IsbL-0030_LatLon0.15_PT012H.grib2 2026-04-30 15:51 271K
20260430T12Z_MSC_GDPS_RelativeHumidity_IsbL-0050_LatLon0.15_PT012H.grib2 2026-04-30 15:51 422K
20260430T12Z_MSC_GDPS_RelativeHumidity_IsbL-0100_LatLon0.15_PT012H.grib2 2026-04-30 15:51 516K
20260430T12Z_MSC_GDPS_RelativeHumidity_IsbL-0150_LatLon0.15_PT012H.grib2 2026-04-30 15:51 656K
20260430T12Z_MSC_GDPS_RelativeHumidity_IsbL-0175_LatLon0.15_PT012H.grib2 2026-04-30 15:51 771K
20260430T12Z_MSC_GDPS_RelativeHumidity_IsbL-0200_LatLon0.15_PT012H.grib2 2026-04-30 15:51 693K
20260430T12Z_MSC_GDPS_RelativeHumidity_IsbL-0225_LatLon0.15_PT012H.grib2 2026-04-30 15:51 790K
20260430T12Z_MSC_GDPS_RelativeHumidity_IsbL-0250_LatLon0.15_PT012H.grib2 2026-04-30 15:51 869K
20260430T12Z_MSC_GDPS_RelativeHumidity_IsbL-0275_LatLon0.15_PT012H.grib2 2026-04-30 15:51 887K
20260430T12Z_MSC_GDPS_RelativeHumidity_IsbL-0300_LatLon0.15_PT012H.grib2 2026-04-30 15:51 932K
20260430T12Z_MSC_GDPS_RelativeHumidity_IsbL-0350_LatLon0.15_PT012H.grib2 2026-04-30 15:51 951K
20260430T12Z_MSC_GDPS_RelativeHumidity_IsbL-0400_LatLon0.15_PT012H.grib2 2026-04-30 15:51 972K
20260430T12Z_MSC_GDPS_RelativeHumidity_IsbL-0450_LatLon0.15_PT012H.grib2 2026-04-30 15:51 1.0M
20260430T12Z_MSC_GDPS_RelativeHumidity_IsbL-0500_LatLon0.15_PT012H.grib2 2026-04-30 15:51 1.0M
20260430T12Z_MSC_GDPS_RelativeHumidity_IsbL-0550_LatLon0.15_PT012H.grib2 2026-04-30 15:51 1.1M
20260430T12Z_MSC_GDPS_RelativeHumidity_IsbL-0600_LatLon0.15_PT012H.grib2 2026-04-30 15:51 1.1M
20260430T12Z_MSC_GDPS_RelativeHumidity_IsbL-0650_LatLon0.15_PT012H.grib2 2026-04-30 15:51 1.1M
20260430T12Z_MSC_GDPS_RelativeHumidity_IsbL-0700_LatLon0.15_PT012H.grib2 2026-04-30 15:51 1.1M
20260430T12Z_MSC_GDPS_RelativeHumidity_IsbL-0750_LatLon0.15_PT012H.grib2 2026-04-30 15:51 1.2M
20260430T12Z_MSC_GDPS_RelativeHumidity_IsbL-0800_LatLon0.15_PT012H.grib2 2026-04-30 15:51 1.2M
20260430T12Z_MSC_GDPS_RelativeHumidity_IsbL-0850_LatLon0.15_PT012H.grib2 2026-04-30 15:51 1.3M
20260430T12Z_MSC_GDPS_RelativeHumidity_IsbL-0875_LatLon0.15_PT012H.grib2 2026-04-30 15:51 1.3M
20260430T12Z_MSC_GDPS_RelativeHumidity_IsbL-0900_LatLon0.15_PT012H.grib2 2026-04-30 15:51 1.2M
20260430T12Z_MSC_GDPS_RelativeHumidity_IsbL-0925_LatLon0.15_PT012H.grib2 2026-04-30 15:51 1.2M
20260430T12Z_MSC_GDPS_RelativeHumidity_IsbL-0950_LatLon0.15_PT012H.grib2 2026-04-30 15:51 1.2M
20260430T12Z_MSC_GDPS_RelativeHumidity_IsbL-0970_LatLon0.15_PT012H.grib2 2026-04-30 15:51 1.2M
20260430T12Z_MSC_GDPS_RelativeHumidity_IsbL-0985_LatLon0.15_PT012H.grib2 2026-04-30 15:51 1.2M
20260430T12Z_MSC_GDPS_RelativeHumidity_IsbL-1000_LatLon0.15_PT012H.grib2 2026-04-30 15:51 1.1M
20260430T12Z_MSC_GDPS_RelativeHumidity_IsbL-1015_LatLon0.15_PT012H.grib2 2026-04-30 15:51 1.0M
20260430T12Z_MSC_GDPS_RelativeVorticity_IsbL-0200_LatLon0.15_PT012H.grib2 2026-04-30 15:51 1.5M
20260430T12Z_MSC_GDPS_RelativeVorticity_IsbL-0250_LatLon0.15_PT012H.grib2 2026-04-30 15:51 1.6M
20260430T12Z_MSC_GDPS_RelativeVorticity_IsbL-0500_LatLon0.15_PT012H.grib2 2026-04-30 15:51 1.5M
20260430T12Z_MSC_GDPS_RelativeVorticity_IsbL-0700_LatLon0.15_PT012H.grib2 2026-04-30 15:51 1.3M
20260430T12Z_MSC_GDPS_RelativeVorticity_IsbL-0850_LatLon0.15_PT012H.grib2 2026-04-30 15:51 1.6M
20260430T12Z_MSC_GDPS_Runoff-Accum_Sfc_LatLon0.15_PT012H.grib2 2026-04-30 15:51 84K
20260430T12Z_MSC_GDPS_SensibleHeatNetFlux_Sfc_LatLon0.15_PT012H.grib2 2026-04-30 15:51 599K
20260430T12Z_MSC_GDPS_ShowalterIndex_IsbL-0500_LatLon0.15_PT012H.grib2 2026-04-30 15:51 6.2M
20260430T12Z_MSC_GDPS_Snow-Accum12h_Sfc_LatLon0.15_PT012H.grib2 2026-04-30 15:51 1.6M
20260430T12Z_MSC_GDPS_Snow-Accum1h_Sfc_LatLon0.15_PT012H.grib2 2026-04-30 15:51 1.0M
20260430T12Z_MSC_GDPS_Snow-Accum3h_Sfc_LatLon0.15_PT012H.grib2 2026-04-30 15:51 1.2M
20260430T12Z_MSC_GDPS_Snow-Accum6h_Sfc_LatLon0.15_PT012H.grib2 2026-04-30 15:51 1.5M
20260430T12Z_MSC_GDPS_Snow-Accum_Sfc_LatLon0.15_PT012H.grib2 2026-04-30 15:51 1.7M
20260430T12Z_MSC_GDPS_SnowDensity_Sfc_LatLon0.15_PT012H.grib2 2026-04-30 15:51 254K
20260430T12Z_MSC_GDPS_SnowDepth_Sfc_LatLon0.15_PT012H.grib2 2026-04-30 15:51 1.7M
20260430T12Z_MSC_GDPS_SoilTemp_DBS-0to10cm_LatLon0.15_PT012H.grib2 2026-04-30 15:51 497K
20260430T12Z_MSC_GDPS_SoilTemp_Sfc_LatLon0.15_PT012H.grib2 2026-04-30 15:51 573K
20260430T12Z_MSC_GDPS_SoilVolumetricIceContent_Sfc_LatLon0.15_PT012H.grib2 2026-04-30 15:51 206K
20260430T12Z_MSC_GDPS_SoilVolumetricWaterContent_DBS-0to10cm_LatLon0.15_PT012H.grib2 2026-04-30 15:51 584K
20260430T12Z_MSC_GDPS_SoilVolumetricWaterContent_DBS-0to1cm_LatLon0.15_PT012H.grib2 2026-04-30 15:51 647K
20260430T12Z_MSC_GDPS_SpecificHumidity_AGL-120m_LatLon0.15_PT012H.grib2 2026-04-30 15:51 1.1M
20260430T12Z_MSC_GDPS_SpecificHumidity_AGL-2m_LatLon0.15_PT012H.grib2 2026-04-30 15:51 1.2M
20260430T12Z_MSC_GDPS_SpecificHumidity_AGL-40m_LatLon0.15_PT012H.grib2 2026-04-30 15:51 1.1M
20260430T12Z_MSC_GDPS_SpecificHumidity_AGL-80m_LatLon0.15_PT012H.grib2 2026-04-30 15:51 1.1M
20260430T12Z_MSC_GDPS_SpecificHumidity_IsbL-0001_LatLon0.15_PT012H.grib2 2026-04-30 15:51 1.0M
20260430T12Z_MSC_GDPS_SpecificHumidity_IsbL-0005_LatLon0.15_PT012H.grib2 2026-04-30 15:51 1.3M
20260430T12Z_MSC_GDPS_SpecificHumidity_IsbL-0010_LatLon0.15_PT012H.grib2 2026-04-30 15:51 1.4M
20260430T12Z_MSC_GDPS_SpecificHumidity_IsbL-0020_LatLon0.15_PT012H.grib2 2026-04-30 15:51 1.4M
20260430T12Z_MSC_GDPS_SpecificHumidity_IsbL-0030_LatLon0.15_PT012H.grib2 2026-04-30 15:51 1.4M
20260430T12Z_MSC_GDPS_SpecificHumidity_IsbL-0050_LatLon0.15_PT012H.grib2 2026-04-30 15:51 1.4M
20260430T12Z_MSC_GDPS_SpecificHumidity_IsbL-0100_LatLon0.15_PT012H.grib2 2026-04-30 15:51 1.4M
20260430T12Z_MSC_GDPS_SpecificHumidity_IsbL-0150_LatLon0.15_PT012H.grib2 2026-04-30 15:51 1.3M
20260430T12Z_MSC_GDPS_SpecificHumidity_IsbL-0175_LatLon0.15_PT012H.grib2 2026-04-30 15:51 1.2M
20260430T12Z_MSC_GDPS_SpecificHumidity_IsbL-0200_LatLon0.15_PT012H.grib2 2026-04-30 15:51 1.3M
20260430T12Z_MSC_GDPS_SpecificHumidity_IsbL-0225_LatLon0.15_PT012H.grib2 2026-04-30 15:51 1.3M
20260430T12Z_MSC_GDPS_SpecificHumidity_IsbL-0250_LatLon0.15_PT012H.grib2 2026-04-30 15:51 1.4M
20260430T12Z_MSC_GDPS_SpecificHumidity_IsbL-0275_LatLon0.15_PT012H.grib2 2026-04-30 15:51 1.3M
20260430T12Z_MSC_GDPS_SpecificHumidity_IsbL-0300_LatLon0.15_PT012H.grib2 2026-04-30 15:51 1.2M
20260430T12Z_MSC_GDPS_SpecificHumidity_IsbL-0350_LatLon0.15_PT012H.grib2 2026-04-30 15:51 1.2M
20260430T12Z_MSC_GDPS_SpecificHumidity_IsbL-0400_LatLon0.15_PT012H.grib2 2026-04-30 15:51 1.5M
20260430T12Z_MSC_GDPS_SpecificHumidity_IsbL-0450_LatLon0.15_PT012H.grib2 2026-04-30 15:51 1.6M
20260430T12Z_MSC_GDPS_SpecificHumidity_IsbL-0500_LatLon0.15_PT012H.grib2 2026-04-30 15:51 1.4M
20260430T12Z_MSC_GDPS_SpecificHumidity_IsbL-0550_LatLon0.15_PT012H.grib2 2026-04-30 15:51 1.6M
20260430T12Z_MSC_GDPS_SpecificHumidity_IsbL-0600_LatLon0.15_PT012H.grib2 2026-04-30 15:51 1.7M
20260430T12Z_MSC_GDPS_SpecificHumidity_IsbL-0650_LatLon0.15_PT012H.grib2 2026-04-30 15:51 1.5M
20260430T12Z_MSC_GDPS_SpecificHumidity_IsbL-0700_LatLon0.15_PT012H.grib2 2026-04-30 15:51 1.6M
20260430T12Z_MSC_GDPS_SpecificHumidity_IsbL-0750_LatLon0.15_PT012H.grib2 2026-04-30 15:51 1.7M
20260430T12Z_MSC_GDPS_SpecificHumidity_IsbL-0800_LatLon0.15_PT012H.grib2 2026-04-30 15:51 1.8M
20260430T12Z_MSC_GDPS_SpecificHumidity_IsbL-0850_LatLon0.15_PT012H.grib2 2026-04-30 15:51 1.9M
20260430T12Z_MSC_GDPS_SpecificHumidity_IsbL-0875_LatLon0.15_PT012H.grib2 2026-04-30 15:51 1.9M
20260430T12Z_MSC_GDPS_SpecificHumidity_IsbL-0900_LatLon0.15_PT012H.grib2 2026-04-30 15:51 1.9M
20260430T12Z_MSC_GDPS_SpecificHumidity_IsbL-0925_LatLon0.15_PT012H.grib2 2026-04-30 15:51 1.6M
20260430T12Z_MSC_GDPS_SpecificHumidity_IsbL-0950_LatLon0.15_PT012H.grib2 2026-04-30 15:51 1.5M
20260430T12Z_MSC_GDPS_SpecificHumidity_IsbL-0970_LatLon0.15_PT012H.grib2 2026-04-30 15:51 1.5M
20260430T12Z_MSC_GDPS_SpecificHumidity_IsbL-0985_LatLon0.15_PT012H.grib2 2026-04-30 15:51 1.5M
20260430T12Z_MSC_GDPS_SpecificHumidity_IsbL-1000_LatLon0.15_PT012H.grib2 2026-04-30 15:51 1.5M
20260430T12Z_MSC_GDPS_SpecificHumidity_IsbL-1015_LatLon0.15_PT012H.grib2 2026-04-30 15:51 1.4M
20260430T12Z_MSC_GDPS_SpecificHumidity_Sfc_LatLon0.15_PT012H.grib2 2026-04-30 15:51 628K
20260430T12Z_MSC_GDPS_Thickness_IsbL-0850to0700_LatLon0.15_PT012H.grib2 2026-04-30 15:51 464K
20260430T12Z_MSC_GDPS_Thickness_IsbL-1000to0500_LatLon0.15_PT012H.grib2 2026-04-30 15:51 364K
20260430T12Z_MSC_GDPS_Thickness_IsbL-1000to0850_LatLon0.15_PT012H.grib2 2026-04-30 15:51 482K
20260430T12Z_MSC_GDPS_TotalCloudCover_Sfc_LatLon0.15_PT012H.grib2 2026-04-30 15:51 829K
20260430T12Z_MSC_GDPS_TotalTotalsIndex_Sfc_LatLon0.15_PT012H.grib2 2026-04-30 15:51 6.2M
20260430T12Z_MSC_GDPS_UVIndex-ClearSky_Sfc_LatLon0.15_PT012H.grib2 2026-04-30 16:43 1.0M
20260430T12Z_MSC_GDPS_UVIndex_Sfc_LatLon0.15_PT012H.grib2 2026-04-30 16:43 1.5M
20260430T12Z_MSC_GDPS_UpwardLongwaveRadiationFlux_NTAtm_LatLon0.15_PT012H.grib2 2026-04-30 15:51 1.1M
20260430T12Z_MSC_GDPS_VerticalVelocity_IsbL-0200_LatLon0.15_PT012H.grib2 2026-04-30 15:51 1.1M
20260430T12Z_MSC_GDPS_VerticalVelocity_IsbL-0250_LatLon0.15_PT012H.grib2 2026-04-30 15:51 1.3M
20260430T12Z_MSC_GDPS_VerticalVelocity_IsbL-0500_LatLon0.15_PT012H.grib2 2026-04-30 15:51 1.0M
20260430T12Z_MSC_GDPS_VerticalVelocity_IsbL-0600_LatLon0.15_PT012H.grib2 2026-04-30 15:51 1.1M
20260430T12Z_MSC_GDPS_VerticalVelocity_IsbL-0700_LatLon0.15_PT012H.grib2 2026-04-30 15:51 1.1M
20260430T12Z_MSC_GDPS_VerticalVelocity_IsbL-0850_LatLon0.15_PT012H.grib2 2026-04-30 15:51 1.3M
20260430T12Z_MSC_GDPS_WindChill_Sfc_LatLon0.15_PT012H.grib2 2026-04-30 15:51 5.3M
20260430T12Z_MSC_GDPS_WindDir_AGL-10m_LatLon0.15_PT012H.grib2 2026-04-30 15:51 1.3M
20260430T12Z_MSC_GDPS_WindDir_AGL-120m_LatLon0.15_PT012H.grib2 2026-04-30 15:51 1.4M
20260430T12Z_MSC_GDPS_WindDir_AGL-40m_LatLon0.15_PT012H.grib2 2026-04-30 15:51 1.4M
20260430T12Z_MSC_GDPS_WindDir_AGL-80m_LatLon0.15_PT012H.grib2 2026-04-30 15:51 1.4M
20260430T12Z_MSC_GDPS_WindDir_IsbL-0001_LatLon0.15_PT012H.grib2 2026-04-30 15:51 690K
20260430T12Z_MSC_GDPS_WindDir_IsbL-0005_LatLon0.15_PT012H.grib2 2026-04-30 15:51 810K
20260430T12Z_MSC_GDPS_WindDir_IsbL-0010_LatLon0.15_PT012H.grib2 2026-04-30 15:51 853K
20260430T12Z_MSC_GDPS_WindDir_IsbL-0020_LatLon0.15_PT012H.grib2 2026-04-30 15:51 958K
20260430T12Z_MSC_GDPS_WindDir_IsbL-0030_LatLon0.15_PT012H.grib2 2026-04-30 15:51 934K
20260430T12Z_MSC_GDPS_WindDir_IsbL-0050_LatLon0.15_PT012H.grib2 2026-04-30 15:51 939K
20260430T12Z_MSC_GDPS_WindDir_IsbL-0100_LatLon0.15_PT012H.grib2 2026-04-30 15:51 1.0M
20260430T12Z_MSC_GDPS_WindDir_IsbL-0150_LatLon0.15_PT012H.grib2 2026-04-30 15:51 1.0M
20260430T12Z_MSC_GDPS_WindDir_IsbL-0175_LatLon0.15_PT012H.grib2 2026-04-30 15:51 1.1M
20260430T12Z_MSC_GDPS_WindDir_IsbL-0200_LatLon0.15_PT012H.grib2 2026-04-30 15:51 1.1M
20260430T12Z_MSC_GDPS_WindDir_IsbL-0225_LatLon0.15_PT012H.grib2 2026-04-30 15:51 1.1M
20260430T12Z_MSC_GDPS_WindDir_IsbL-0250_LatLon0.15_PT012H.grib2 2026-04-30 15:51 1.1M
20260430T12Z_MSC_GDPS_WindDir_IsbL-0275_LatLon0.15_PT012H.grib2 2026-04-30 15:51 1.2M
20260430T12Z_MSC_GDPS_WindDir_IsbL-0300_LatLon0.15_PT012H.grib2 2026-04-30 15:51 1.2M
20260430T12Z_MSC_GDPS_WindDir_IsbL-0350_LatLon0.15_PT012H.grib2 2026-04-30 15:51 1.2M
20260430T12Z_MSC_GDPS_WindDir_IsbL-0400_LatLon0.15_PT012H.grib2 2026-04-30 15:51 1.3M
20260430T12Z_MSC_GDPS_WindDir_IsbL-0450_LatLon0.15_PT012H.grib2 2026-04-30 15:51 1.3M
20260430T12Z_MSC_GDPS_WindDir_IsbL-0500_LatLon0.15_PT012H.grib2 2026-04-30 15:51 1.3M
20260430T12Z_MSC_GDPS_WindDir_IsbL-0550_LatLon0.15_PT012H.grib2 2026-04-30 15:51 1.4M
20260430T12Z_MSC_GDPS_WindDir_IsbL-0600_LatLon0.15_PT012H.grib2 2026-04-30 15:51 1.4M
20260430T12Z_MSC_GDPS_WindDir_IsbL-0650_LatLon0.15_PT012H.grib2 2026-04-30 15:51 1.5M
20260430T12Z_MSC_GDPS_WindDir_IsbL-0700_LatLon0.15_PT012H.grib2 2026-04-30 15:51 1.6M
20260430T12Z_MSC_GDPS_WindDir_IsbL-0750_LatLon0.15_PT012H.grib2 2026-04-30 15:51 1.7M
20260430T12Z_MSC_GDPS_WindDir_IsbL-0800_LatLon0.15_PT012H.grib2 2026-04-30 15:51 1.8M
20260430T12Z_MSC_GDPS_WindDir_IsbL-0850_LatLon0.15_PT012H.grib2 2026-04-30 15:51 1.9M
20260430T12Z_MSC_GDPS_WindDir_IsbL-0875_LatLon0.15_PT012H.grib2 2026-04-30 15:51 1.9M
20260430T12Z_MSC_GDPS_WindDir_IsbL-0900_LatLon0.15_PT012H.grib2 2026-04-30 15:51 2.0M
20260430T12Z_MSC_GDPS_WindDir_IsbL-0925_LatLon0.15_PT012H.grib2 2026-04-30 15:51 2.0M
20260430T12Z_MSC_GDPS_WindDir_IsbL-0950_LatLon0.15_PT012H.grib2 2026-04-30 15:51 2.0M
20260430T12Z_MSC_GDPS_WindDir_IsbL-0970_LatLon0.15_PT012H.grib2 2026-04-30 15:51 2.0M
20260430T12Z_MSC_GDPS_WindDir_IsbL-0985_LatLon0.15_PT012H.grib2 2026-04-30 15:51 2.0M
20260430T12Z_MSC_GDPS_WindDir_IsbL-1000_LatLon0.15_PT012H.grib2 2026-04-30 15:51 2.1M
20260430T12Z_MSC_GDPS_WindDir_IsbL-1015_LatLon0.15_PT012H.grib2 2026-04-30 15:51 2.0M
20260430T12Z_MSC_GDPS_WindGust-Max_AGL-10m_LatLon0.15_PT012H.grib2 2026-04-30 15:51 2.2M
20260430T12Z_MSC_GDPS_WindGust-Min_AGL-10m_LatLon0.15_PT012H.grib2 2026-04-30 15:51 2.2M
20260430T12Z_MSC_GDPS_WindGust_AGL-10m_LatLon0.15_PT012H.grib2 2026-04-30 15:51 2.2M
20260430T12Z_MSC_GDPS_WindSpeed_AGL-10m_LatLon0.15_PT012H.grib2 2026-04-30 15:51 1.1M
20260430T12Z_MSC_GDPS_WindSpeed_AGL-120m_LatLon0.15_PT012H.grib2 2026-04-30 15:51 1.3M
20260430T12Z_MSC_GDPS_WindSpeed_AGL-40m_LatLon0.15_PT012H.grib2 2026-04-30 15:51 1.2M
20260430T12Z_MSC_GDPS_WindSpeed_AGL-80m_LatLon0.15_PT012H.grib2 2026-04-30 15:51 1.2M
20260430T12Z_MSC_GDPS_WindSpeed_IsbL-0001_LatLon0.15_PT012H.grib2 2026-04-30 15:51 645K
20260430T12Z_MSC_GDPS_WindSpeed_IsbL-0005_LatLon0.15_PT012H.grib2 2026-04-30 15:51 621K
20260430T12Z_MSC_GDPS_WindSpeed_IsbL-0010_LatLon0.15_PT012H.grib2 2026-04-30 15:51 635K
20260430T12Z_MSC_GDPS_WindSpeed_IsbL-0020_LatLon0.15_PT012H.grib2 2026-04-30 15:51 867K
20260430T12Z_MSC_GDPS_WindSpeed_IsbL-0030_LatLon0.15_PT012H.grib2 2026-04-30 15:51 873K
20260430T12Z_MSC_GDPS_WindSpeed_IsbL-0050_LatLon0.15_PT012H.grib2 2026-04-30 15:51 915K
20260430T12Z_MSC_GDPS_WindSpeed_IsbL-0100_LatLon0.15_PT012H.grib2 2026-04-30 15:51 1.1M
20260430T12Z_MSC_GDPS_WindSpeed_IsbL-0150_LatLon0.15_PT012H.grib2 2026-04-30 15:51 1.0M
20260430T12Z_MSC_GDPS_WindSpeed_IsbL-0175_LatLon0.15_PT012H.grib2 2026-04-30 15:51 1.0M
20260430T12Z_MSC_GDPS_WindSpeed_IsbL-0200_LatLon0.15_PT012H.grib2 2026-04-30 15:51 1.1M
20260430T12Z_MSC_GDPS_WindSpeed_IsbL-0225_LatLon0.15_PT012H.grib2 2026-04-30 15:51 1.1M
20260430T12Z_MSC_GDPS_WindSpeed_IsbL-0250_LatLon0.15_PT012H.grib2 2026-04-30 15:51 1.1M
20260430T12Z_MSC_GDPS_WindSpeed_IsbL-0275_LatLon0.15_PT012H.grib2 2026-04-30 15:51 1.1M
20260430T12Z_MSC_GDPS_WindSpeed_IsbL-0300_LatLon0.15_PT012H.grib2 2026-04-30 15:51 1.1M
20260430T12Z_MSC_GDPS_WindSpeed_IsbL-0350_LatLon0.15_PT012H.grib2 2026-04-30 15:51 1.1M
20260430T12Z_MSC_GDPS_WindSpeed_IsbL-0400_LatLon0.15_PT012H.grib2 2026-04-30 15:51 1.1M
20260430T12Z_MSC_GDPS_WindSpeed_IsbL-0450_LatLon0.15_PT012H.grib2 2026-04-30 15:51 1.1M
20260430T12Z_MSC_GDPS_WindSpeed_IsbL-0500_LatLon0.15_PT012H.grib2 2026-04-30 15:51 1.1M
20260430T12Z_MSC_GDPS_WindSpeed_IsbL-0550_LatLon0.15_PT012H.grib2 2026-04-30 15:51 1.1M
20260430T12Z_MSC_GDPS_WindSpeed_IsbL-0600_LatLon0.15_PT012H.grib2 2026-04-30 15:51 1.1M
20260430T12Z_MSC_GDPS_WindSpeed_IsbL-0650_LatLon0.15_PT012H.grib2 2026-04-30 15:51 1.4M
20260430T12Z_MSC_GDPS_WindSpeed_IsbL-0700_LatLon0.15_PT012H.grib2 2026-04-30 15:51 1.5M
20260430T12Z_MSC_GDPS_WindSpeed_IsbL-0750_LatLon0.15_PT012H.grib2 2026-04-30 15:51 1.6M
20260430T12Z_MSC_GDPS_WindSpeed_IsbL-0800_LatLon0.15_PT012H.grib2 2026-04-30 15:51 1.6M
20260430T12Z_MSC_GDPS_WindSpeed_IsbL-0850_LatLon0.15_PT012H.grib2 2026-04-30 15:51 1.7M
20260430T12Z_MSC_GDPS_WindSpeed_IsbL-0875_LatLon0.15_PT012H.grib2 2026-04-30 15:51 1.8M
20260430T12Z_MSC_GDPS_WindSpeed_IsbL-0900_LatLon0.15_PT012H.grib2 2026-04-30 15:51 1.8M
20260430T12Z_MSC_GDPS_WindSpeed_IsbL-0925_LatLon0.15_PT012H.grib2 2026-04-30 15:51 1.9M
20260430T12Z_MSC_GDPS_WindSpeed_IsbL-0950_LatLon0.15_PT012H.grib2 2026-04-30 15:51 1.9M
20260430T12Z_MSC_GDPS_WindSpeed_IsbL-0970_LatLon0.15_PT012H.grib2 2026-04-30 15:51 1.9M
20260430T12Z_MSC_GDPS_WindSpeed_IsbL-0985_LatLon0.15_PT012H.grib2 2026-04-30 15:51 1.8M
20260430T12Z_MSC_GDPS_WindSpeed_IsbL-1000_LatLon0.15_PT012H.grib2 2026-04-30 15:51 1.8M
20260430T12Z_MSC_GDPS_WindSpeed_IsbL-1015_LatLon0.15_PT012H.grib2 2026-04-30 15:51 1.8M
20260430T12Z_MSC_GDPS_WindU_AGL-10m_LatLon0.15_PT012H.grib2 2026-04-30 15:51 1.3M
20260430T12Z_MSC_GDPS_WindU_AGL-120m_LatLon0.15_PT012H.grib2 2026-04-30 15:51 1.0M
20260430T12Z_MSC_GDPS_WindU_AGL-40m_LatLon0.15_PT012H.grib2 2026-04-30 15:51 1.0M
20260430T12Z_MSC_GDPS_WindU_AGL-80m_LatLon0.15_PT012H.grib2 2026-04-30 15:51 1.0M
20260430T12Z_MSC_GDPS_WindU_IsbL-0001_LatLon0.15_PT012H.grib2 2026-04-30 15:51 649K
20260430T12Z_MSC_GDPS_WindU_IsbL-0005_LatLon0.15_PT012H.grib2 2026-04-30 15:51 701K
20260430T12Z_MSC_GDPS_WindU_IsbL-0010_LatLon0.15_PT012H.grib2 2026-04-30 15:51 709K
20260430T12Z_MSC_GDPS_WindU_IsbL-0020_LatLon0.15_PT012H.grib2 2026-04-30 15:51 738K
20260430T12Z_MSC_GDPS_WindU_IsbL-0030_LatLon0.15_PT012H.grib2 2026-04-30 15:51 746K
20260430T12Z_MSC_GDPS_WindU_IsbL-0050_LatLon0.15_PT012H.grib2 2026-04-30 15:51 776K
20260430T12Z_MSC_GDPS_WindU_IsbL-0100_LatLon0.15_PT012H.grib2 2026-04-30 15:51 927K
20260430T12Z_MSC_GDPS_WindU_IsbL-0150_LatLon0.15_PT012H.grib2 2026-04-30 15:51 1.0M
20260430T12Z_MSC_GDPS_WindU_IsbL-0175_LatLon0.15_PT012H.grib2 2026-04-30 15:51 1.0M
20260430T12Z_MSC_GDPS_WindU_IsbL-0200_LatLon0.15_PT012H.grib2 2026-04-30 15:51 1.1M
20260430T12Z_MSC_GDPS_WindU_IsbL-0225_LatLon0.15_PT012H.grib2 2026-04-30 15:51 858K
20260430T12Z_MSC_GDPS_WindU_IsbL-0250_LatLon0.15_PT012H.grib2 2026-04-30 15:51 859K
20260430T12Z_MSC_GDPS_WindU_IsbL-0275_LatLon0.15_PT012H.grib2 2026-04-30 15:51 884K
20260430T12Z_MSC_GDPS_WindU_IsbL-0300_LatLon0.15_PT012H.grib2 2026-04-30 15:51 875K
20260430T12Z_MSC_GDPS_WindU_IsbL-0350_LatLon0.15_PT012H.grib2 2026-04-30 15:51 890K
20260430T12Z_MSC_GDPS_WindU_IsbL-0400_LatLon0.15_PT012H.grib2 2026-04-30 15:51 1.1M
20260430T12Z_MSC_GDPS_WindU_IsbL-0450_LatLon0.15_PT012H.grib2 2026-04-30 15:51 1.1M
20260430T12Z_MSC_GDPS_WindU_IsbL-0500_LatLon0.15_PT012H.grib2 2026-04-30 15:51 1.1M
20260430T12Z_MSC_GDPS_WindU_IsbL-0550_LatLon0.15_PT012H.grib2 2026-04-30 15:51 1.1M
20260430T12Z_MSC_GDPS_WindU_IsbL-0600_LatLon0.15_PT012H.grib2 2026-04-30 15:51 1.1M
20260430T12Z_MSC_GDPS_WindU_IsbL-0650_LatLon0.15_PT012H.grib2 2026-04-30 15:51 1.2M
20260430T12Z_MSC_GDPS_WindU_IsbL-0700_LatLon0.15_PT012H.grib2 2026-04-30 15:51 1.2M
20260430T12Z_MSC_GDPS_WindU_IsbL-0750_LatLon0.15_PT012H.grib2 2026-04-30 15:51 1.3M
20260430T12Z_MSC_GDPS_WindU_IsbL-0800_LatLon0.15_PT012H.grib2 2026-04-30 15:51 1.3M
20260430T12Z_MSC_GDPS_WindU_IsbL-0850_LatLon0.15_PT012H.grib2 2026-04-30 15:51 1.4M
20260430T12Z_MSC_GDPS_WindU_IsbL-0875_LatLon0.15_PT012H.grib2 2026-04-30 15:51 1.4M
20260430T12Z_MSC_GDPS_WindU_IsbL-0900_LatLon0.15_PT012H.grib2 2026-04-30 15:51 1.5M
20260430T12Z_MSC_GDPS_WindU_IsbL-0925_LatLon0.15_PT012H.grib2 2026-04-30 15:51 1.5M
20260430T12Z_MSC_GDPS_WindU_IsbL-0950_LatLon0.15_PT012H.grib2 2026-04-30 15:51 1.4M
20260430T12Z_MSC_GDPS_WindU_IsbL-0970_LatLon0.15_PT012H.grib2 2026-04-30 15:51 1.4M
20260430T12Z_MSC_GDPS_WindU_IsbL-0985_LatLon0.15_PT012H.grib2 2026-04-30 15:51 1.4M
20260430T12Z_MSC_GDPS_WindU_IsbL-1000_LatLon0.15_PT012H.grib2 2026-04-30 15:51 1.4M
20260430T12Z_MSC_GDPS_WindU_IsbL-1015_LatLon0.15_PT012H.grib2 2026-04-30 15:51 1.3M
20260430T12Z_MSC_GDPS_WindV_AGL-10m_LatLon0.15_PT012H.grib2 2026-04-30 15:51 1.6M
20260430T12Z_MSC_GDPS_WindV_AGL-120m_LatLon0.15_PT012H.grib2 2026-04-30 15:51 1.0M
20260430T12Z_MSC_GDPS_WindV_AGL-40m_LatLon0.15_PT012H.grib2 2026-04-30 15:51 971K
20260430T12Z_MSC_GDPS_WindV_AGL-80m_LatLon0.15_PT012H.grib2 2026-04-30 15:51 1.0M
20260430T12Z_MSC_GDPS_WindV_IsbL-0001_LatLon0.15_PT012H.grib2 2026-04-30 15:51 783K
20260430T12Z_MSC_GDPS_WindV_IsbL-0005_LatLon0.15_PT012H.grib2 2026-04-30 15:51 772K
20260430T12Z_MSC_GDPS_WindV_IsbL-0010_LatLon0.15_PT012H.grib2 2026-04-30 15:51 802K
20260430T12Z_MSC_GDPS_WindV_IsbL-0020_LatLon0.15_PT012H.grib2 2026-04-30 15:51 857K
20260430T12Z_MSC_GDPS_WindV_IsbL-0030_LatLon0.15_PT012H.grib2 2026-04-30 15:51 859K
20260430T12Z_MSC_GDPS_WindV_IsbL-0050_LatLon0.15_PT012H.grib2 2026-04-30 15:51 910K
20260430T12Z_MSC_GDPS_WindV_IsbL-0100_LatLon0.15_PT012H.grib2 2026-04-30 15:51 1.1M
20260430T12Z_MSC_GDPS_WindV_IsbL-0150_LatLon0.15_PT012H.grib2 2026-04-30 15:51 1.0M
20260430T12Z_MSC_GDPS_WindV_IsbL-0175_LatLon0.15_PT012H.grib2 2026-04-30 15:51 1.0M
20260430T12Z_MSC_GDPS_WindV_IsbL-0200_LatLon0.15_PT012H.grib2 2026-04-30 15:51 850K
20260430T12Z_MSC_GDPS_WindV_IsbL-0225_LatLon0.15_PT012H.grib2 2026-04-30 15:51 856K
20260430T12Z_MSC_GDPS_WindV_IsbL-0250_LatLon0.15_PT012H.grib2 2026-04-30 15:51 856K
20260430T12Z_MSC_GDPS_WindV_IsbL-0275_LatLon0.15_PT012H.grib2 2026-04-30 15:51 881K
20260430T12Z_MSC_GDPS_WindV_IsbL-0300_LatLon0.15_PT012H.grib2 2026-04-30 15:51 870K
20260430T12Z_MSC_GDPS_WindV_IsbL-0350_LatLon0.15_PT012H.grib2 2026-04-30 15:51 883K
20260430T12Z_MSC_GDPS_WindV_IsbL-0400_LatLon0.15_PT012H.grib2 2026-04-30 15:51 887K
20260430T12Z_MSC_GDPS_WindV_IsbL-0450_LatLon0.15_PT012H.grib2 2026-04-30 15:51 1.1M
20260430T12Z_MSC_GDPS_WindV_IsbL-0500_LatLon0.15_PT012H.grib2 2026-04-30 15:51 1.1M
20260430T12Z_MSC_GDPS_WindV_IsbL-0550_LatLon0.15_PT012H.grib2 2026-04-30 15:51 1.1M
20260430T12Z_MSC_GDPS_WindV_IsbL-0600_LatLon0.15_PT012H.grib2 2026-04-30 15:51 1.1M
20260430T12Z_MSC_GDPS_WindV_IsbL-0650_LatLon0.15_PT012H.grib2 2026-04-30 15:51 1.2M
20260430T12Z_MSC_GDPS_WindV_IsbL-0700_LatLon0.15_PT012H.grib2 2026-04-30 15:51 1.2M
20260430T12Z_MSC_GDPS_WindV_IsbL-0750_LatLon0.15_PT012H.grib2 2026-04-30 15:51 1.2M
20260430T12Z_MSC_GDPS_WindV_IsbL-0800_LatLon0.15_PT012H.grib2 2026-04-30 15:51 1.3M
20260430T12Z_MSC_GDPS_WindV_IsbL-0850_LatLon0.15_PT012H.grib2 2026-04-30 15:51 1.4M
20260430T12Z_MSC_GDPS_WindV_IsbL-0875_LatLon0.15_PT012H.grib2 2026-04-30 15:51 1.4M
20260430T12Z_MSC_GDPS_WindV_IsbL-0900_LatLon0.15_PT012H.grib2 2026-04-30 15:51 1.4M
20260430T12Z_MSC_GDPS_WindV_IsbL-0925_LatLon0.15_PT012H.grib2 2026-04-30 15:51 1.4M
20260430T12Z_MSC_GDPS_WindV_IsbL-0950_LatLon0.15_PT012H.grib2 2026-04-30 15:51 1.4M
20260430T12Z_MSC_GDPS_WindV_IsbL-0970_LatLon0.15_PT012H.grib2 2026-04-30 15:51 1.4M
20260430T12Z_MSC_GDPS_WindV_IsbL-0985_LatLon0.15_PT012H.grib2 2026-04-30 15:51 1.4M
20260430T12Z_MSC_GDPS_WindV_IsbL-1000_LatLon0.15_PT012H.grib2 2026-04-30 15:51 1.7M
20260430T12Z_MSC_GDPS_WindV_IsbL-1015_LatLon0.15_PT012H.grib2 2026-04-30 15:51 1.6M